PEGASUS DEB, 24378

Orbit data source: Space-Track

PEGASUS DEB, 24378 is space debris in LEO originally from a launch on Thu, 19 May 1994 UTC launched from the Air Force Western Test Range (AFWTR). Debris objects in space refer to the collection of defunct objects orbiting the Earth. Examples of debris include non-operational satellites, rocket bodies, and fragments generated from explosions, collisions, or faulty payload assembly.

Loading next visibility...
Identifier
24378, 1994-029QF
Orbit
LEO
Country
Flag of USUS
Related business
Manufacturer
Unknown
Mission
Spacecraft
Bus & Motor
Unknown
Mass
Unknown
Launch date (UTC)
1994-05-19 (32 years ago)
Launch vehicle
Unknown
Launch site
Air Force Western Test Range (AFWTR)
Object type
Payload
Rocket body
Debris
Shape & HBR
Unknown shape, 0.1 m
Radar Cross Section
Small (<0.1 m²)

Expand to show TLE details & history
Last TLE update: 8 hours ago

TLE from 8 hours ago
0 PEGASUS DEB
1 24378U 94029QF  26045.37602661  .00001142  00000-0  20068-3 0  9993
2 24378  82.0323   7.6165 0159273 226.0239 132.7739 14.58915480680753
Epoch: 2026-02-14T09:01Z
TLE epoch observation values (Epoch: 2026-02-14T09:01:28.699Z)
Latitude
0.00005°
Longitude
87.84695°
Altitude
777.16 km
Speed
7.424 km/s
True Right ascension
00h 30m 27s
True Declination
0° 00' 00"
Sunlit
Object was in daylight at epoch
Visualization orbit readout
Latitude
Unknown
Longitude
Unknown
Altitude
Unknown
Speed
Unknown
Apparent Right ascension
Unknown
Apparent Declination
Unknown
Sunlit
N/A
Visualization observer readout
Local Sidereal Time
19:26:55
Azimuth
Unknown
Elevation
Unknown
Doppler factor
Unknown
Orbital elements
Apogee altitude
806.385 km
Perigee altitude
581.113 km
Semi-major axis
7,071.886 km
Eccentricity
0.01593
Inclination
82.0323°
RAAN
7.6165°
Arg. of periapsis
226.0239°
True anomaly
134.09562°
Mean anomaly
132.7739°
Eccentric anomaly
133.43655°
Mean motion
3.64956 °/min
Orbital period
98.64 mins
BSTAR
0.00020068
Loading maneuver chart data...
Computing Atmospheric mass density...

Documentation

Showing up to 5 results
|